RYR458E EPGD-EDDH

Flight info

Callsign RYR458E
Flight time 1h 4m
Altitude 30000
Route DEXIR T671 AGODU L733 TABOK DCT VIBIS L619 BUMIL M748 RARUP RARUP6A
Aircraft B38M/M-SDE1FGHILORVWXY/HB1

Departure

Time 2026-05-06 12:54
Airport Gdańsk Lech Wałęsa Airport (EPGD)

Arrival

Time 2026-05-06 13:59
Airport Hamburg Helmut Schmidt Airport (EDDH)
Time Latitude Longitude Altitude Speed Heading
2026-05-06 12:28 54.38128 18.46558 462 ft 0 kts 23°
2026-05-06 12:48 54.38111 18.46546 462 ft 4 kts 18°
2026-05-06 12:48 54.38095 18.46542 459 ft 4 kts 343°
2026-05-06 12:48 54.38078 18.46569 462 ft 4 kts 295°
2026-05-06 12:48 54.38073 18.46588 462 ft 1 kts 293°
2026-05-06 12:49 54.38073 18.46590 462 ft 0 kts 293°
2026-05-06 12:50 54.38075 18.46583 462 ft 2 kts 293°
2026-05-06 12:51 54.38095 18.46499 460 ft 14 kts 293°
2026-05-06 12:51 54.38148 18.46290 462 ft 22 kts 294°
2026-05-06 12:51 54.38177 18.46154 462 ft 9 kts 271°
2026-05-06 12:51 54.38136 18.46083 462 ft 10 kts 203°
2026-05-06 12:52 54.38098 18.45982 462 ft 12 kts 276°
2026-05-06 12:52 54.38134 18.45823 458 ft 17 kts 293°
2026-05-06 12:52 54.38128 18.45656 456 ft 12 kts 221°
2026-05-06 12:52 54.38110 18.45637 457 ft 0 kts 205°
2026-05-06 12:53 54.38087 18.45619 457 ft 11 kts 204°
2026-05-06 12:53 54.37991 18.45682 456 ft 20 kts 114°
2026-05-06 12:53 54.37891 18.46100 459 ft 74 kts 111°
2026-05-06 12:53 54.37580 18.47322 466 ft 149 kts 113°
2026-05-06 12:54 54.37147 18.49125 1084 ft 165 kts 106°
2026-05-06 12:54 54.36726 18.50872 2431 ft 154 kts 109°
2026-05-06 12:54 54.36283 18.52660 3039 ft 175 kts 115°
2026-05-06 12:54 54.35761 18.54727 3523 ft 203 kts 117°
2026-05-06 12:55 54.35161 18.57090 4130 ft 222 kts 117°
2026-05-06 12:55 54.34544 18.59532 5119 ft 230 kts 118°
2026-05-06 12:55 54.33897 18.62099 5566 ft 236 kts 120°
2026-05-06 12:55 54.32949 18.64257 6513 ft 224 kts 148°
2026-05-06 12:56 54.31542 18.65324 7332 ft 223 kts 175°
2026-05-06 12:56 54.30024 18.65169 8228 ft 222 kts 197°
2026-05-06 12:56 54.28589 18.64114 9010 ft 233 kts 216°
2026-05-06 12:56 54.27510 18.61919 9618 ft 253 kts 240°
2026-05-06 12:57 54.26974 18.58936 10226 ft 274 kts 260°
2026-05-06 12:57 54.26909 18.55537 10729 ft 293 kts 264°
2026-05-06 12:57 54.26862 18.51965 11342 ft 306 kts 264°
2026-05-06 12:57 54.26817 18.48268 12062 ft 313 kts 264°
2026-05-06 12:58 54.26777 18.44578 12927 ft 316 kts 264°
2026-05-06 12:58 54.26738 18.40791 13745 ft 319 kts 264°
2026-05-06 12:58 54.26699 18.36966 14491 ft 322 kts 264°
2026-05-06 12:58 54.26659 18.33110 15210 ft 326 kts 264°
2026-05-06 12:59 54.26617 18.29204 15914 ft 329 kts 264°
2026-05-06 12:59 54.26574 18.25257 16619 ft 333 kts 264°
2026-05-06 12:59 54.26530 18.21324 17285 ft 336 kts 264°
2026-05-06 12:59 54.26410 18.17311 17933 ft 338 kts 260°
2026-05-06 13:00 54.26180 18.13280 18513 ft 341 kts 261°
2026-05-06 13:00 54.25958 18.09223 19085 ft 344 kts 261°
2026-05-06 13:00 54.25739 18.05126 19645 ft 347 kts 261°
2026-05-06 13:00 54.25522 18.01039 20193 ft 350 kts 261°
2026-05-06 13:01 54.25300 17.96860 20746 ft 353 kts 261°
2026-05-06 13:01 54.25076 17.92670 21289 ft 356 kts 261°
2026-05-06 13:01 54.24848 17.88438 21821 ft 359 kts 261°
2026-05-06 13:01 54.24617 17.84165 22354 ft 362 kts 261°
2026-05-06 13:02 54.24383 17.79862 22880 ft 365 kts 261°
2026-05-06 13:02 54.24144 17.75510 23429 ft 368 kts 261°
2026-05-06 13:02 54.23906 17.71189 23864 ft 370 kts 261°
2026-05-06 13:02 54.23661 17.66785 24327 ft 373 kts 261°
2026-05-06 13:03 54.23414 17.62361 24795 ft 375 kts 260°
2026-05-06 13:03 54.23162 17.57901 25249 ft 377 kts 261°
2026-05-06 13:03 54.22909 17.53416 25705 ft 379 kts 261°
2026-05-06 13:03 54.22657 17.48981 26155 ft 382 kts 261°
2026-05-06 13:04 54.22165 17.44550 26568 ft 378 kts 246°
2026-05-06 13:04 54.21046 17.40493 26976 ft 379 kts 242°
2026-05-06 13:04 54.19896 17.36408 27354 ft 382 kts 242°
2026-05-06 13:04 54.18722 17.32311 27833 ft 382 kts 242°
2026-05-06 13:05 54.17539 17.28239 28395 ft 380 kts 241°
2026-05-06 13:05 54.16370 17.24243 28923 ft 379 kts 241°
2026-05-06 13:05 54.15186 17.20217 29461 ft 378 kts 241°
2026-05-06 13:05 54.14003 17.16201 29819 ft 381 kts 241°
2026-05-06 13:06 54.12792 17.12099 29815 ft 391 kts 242°
2026-05-06 13:06 54.10304 17.03696 29808 ft 409 kts 242°
2026-05-06 13:06 54.09272 16.99131 29810 ft 419 kts 253°
2026-05-06 13:07 54.08503 16.94287 29805 ft 426 kts 252°
2026-05-06 13:07 54.06854 16.84406 29811 ft 439 kts 252°
2026-05-06 13:08 54.05228 16.74694 29825 ft 410 kts 252°
2026-05-06 13:08 54.03678 16.65490 29809 ft 410 kts 252°
2026-05-06 13:09 54.02068 16.55982 29810 ft 424 kts 252°
2026-05-06 13:09 54.00431 16.46365 29814 ft 426 kts 252°
2026-05-06 13:10 53.98770 16.36658 29815 ft 427 kts 252°
2026-05-06 13:10 53.97102 16.26967 29812 ft 428 kts 252°
2026-05-06 13:11 53.95429 16.17293 29819 ft 429 kts 252°
2026-05-06 13:11 53.93009 16.08130 29825 ft 427 kts 236°
2026-05-06 13:12 53.89777 15.99633 29816 ft 429 kts 237°
2026-05-06 13:12 53.86509 15.91169 29812 ft 428 kts 238°
2026-05-06 13:12 53.85302 15.86579 29814 ft 428 kts 254°
2026-05-06 13:13 53.84803 15.81593 29828 ft 431 kts 265°
2026-05-06 13:13 53.84587 15.71423 29819 ft 433 kts 266°
2026-05-06 13:14 53.84369 15.61283 29825 ft 433 kts 266°
2026-05-06 13:14 53.84156 15.51045 29828 ft 434 kts 266°
2026-05-06 13:15 53.83937 15.40856 29826 ft 436 kts 266°
2026-05-06 13:15 53.83706 15.30555 29821 ft 436 kts 266°
2026-05-06 13:16 53.83469 15.20337 29828 ft 437 kts 266°
2026-05-06 13:16 53.83220 15.10007 29831 ft 439 kts 266°
2026-05-06 13:17 53.82963 14.99665 29830 ft 440 kts 266°
2026-05-06 13:17 53.82694 14.89269 29827 ft 441 kts 266°
2026-05-06 13:18 53.82419 14.78942 29829 ft 442 kts 266°
2026-05-06 13:18 53.82133 14.68540 29835 ft 443 kts 266°
2026-05-06 13:19 53.81835 14.58068 29845 ft 444 kts 266°
2026-05-06 13:19 53.81531 14.47679 29849 ft 445 kts 265°
2026-05-06 13:20 53.81215 14.37190 29854 ft 445 kts 265°
2026-05-06 13:20 53.80890 14.26708 29860 ft 446 kts 265°
2026-05-06 13:21 53.80557 14.16254 29857 ft 447 kts 265°
2026-05-06 13:21 53.80212 14.05726 29860 ft 447 kts 265°
2026-05-06 13:22 53.79860 13.95278 29852 ft 448 kts 265°
2026-05-06 13:22 53.79496 13.84733 29847 ft 448 kts 265°
2026-05-06 13:23 53.79124 13.74215 29855 ft 448 kts 265°
2026-05-06 13:23 53.78741 13.63682 29853 ft 448 kts 265°
2026-05-06 13:24 53.78352 13.53210 29849 ft 449 kts 265°
2026-05-06 13:24 53.77950 13.42645 29855 ft 449 kts 265°
2026-05-06 13:25 53.77541 13.32136 29850 ft 450 kts 265°
2026-05-06 13:25 53.77120 13.21569 29792 ft 451 kts 264°
2026-05-06 13:25 53.76906 13.16287 29217 ft 448 kts 264°
2026-05-06 13:26 53.76692 13.11087 28674 ft 448 kts 264°
2026-05-06 13:26 53.76474 13.05833 28130 ft 449 kts 264°
2026-05-06 13:26 53.76252 13.00553 27583 ft 449 kts 264°
2026-05-06 13:26 53.76027 12.95267 27064 ft 450 kts 264°
2026-05-06 13:27 53.75801 12.89989 26550 ft 450 kts 264°
2026-05-06 13:27 53.75573 12.84713 26045 ft 450 kts 264°
2026-05-06 13:27 53.75342 12.79426 25556 ft 451 kts 264°
2026-05-06 13:27 53.75111 12.74203 25065 ft 451 kts 264°
2026-05-06 13:28 53.74877 12.68938 24601 ft 448 kts 264°
2026-05-06 13:28 53.74641 12.63692 24136 ft 445 kts 264°
2026-05-06 13:28 53.74406 12.58506 23683 ft 442 kts 264°
2026-05-06 13:28 53.74170 12.53348 23197 ft 438 kts 264°
2026-05-06 13:29 53.73934 12.48225 22663 ft 435 kts 264°
2026-05-06 13:29 53.73697 12.43151 22141 ft 431 kts 264°
2026-05-06 13:29 53.73464 12.38193 21636 ft 427 kts 264°
2026-05-06 13:29 53.73227 12.33195 21133 ft 424 kts 264°
2026-05-06 13:30 53.72991 12.28250 20636 ft 420 kts 264°
2026-05-06 13:30 53.72754 12.23341 20151 ft 417 kts 264°
2026-05-06 13:30 53.72517 12.18478 19671 ft 411 kts 264°
2026-05-06 13:30 53.72284 12.13713 19209 ft 405 kts 264°
2026-05-06 13:31 53.72054 12.09052 18754 ft 401 kts 263°
2026-05-06 13:31 53.71820 12.04362 18296 ft 398 kts 263°
2026-05-06 13:31 53.71587 11.99718 17803 ft 396 kts 263°
2026-05-06 13:31 53.71352 11.95100 17285 ft 394 kts 263°
2026-05-06 13:32 53.71118 11.90493 16774 ft 392 kts 263°
2026-05-06 13:32 53.70882 11.85911 16267 ft 389 kts 263°
2026-05-06 13:32 53.70649 11.81395 15772 ft 384 kts 263°
2026-05-06 13:32 53.70416 11.76929 15285 ft 376 kts 263°
2026-05-06 13:33 53.70192 11.72655 14839 ft 364 kts 263°
2026-05-06 13:33 53.69967 11.68402 14367 ft 364 kts 263°
2026-05-06 13:33 53.69741 11.64159 13887 ft 356 kts 263°
2026-05-06 13:33 53.69524 11.60107 13397 ft 344 kts 263°
2026-05-06 13:34 53.69312 11.56140 12884 ft 333 kts 263°
2026-05-06 13:34 53.69103 11.52298 12373 ft 323 kts 263°
2026-05-06 13:34 53.68902 11.48604 11867 ft 315 kts 264°
2026-05-06 13:34 53.68701 11.44947 11373 ft 308 kts 264°
2026-05-06 13:35 53.68502 11.41348 10880 ft 309 kts 264°
2026-05-06 13:35 53.68300 11.37720 10381 ft 311 kts 264°
2026-05-06 13:35 53.68165 11.35303 10071 ft 313 kts 264°
2026-05-06 13:35 53.67961 11.31672 9881 ft 306 kts 264°
2026-05-06 13:36 53.67701 11.27071 9878 ft 291 kts 264°
2026-05-06 13:36 53.67507 11.23667 9863 ft 291 kts 264°
2026-05-06 13:36 53.67378 11.21415 9862 ft 291 kts 264°
2026-05-06 13:36 53.67182 11.18007 9856 ft 292 kts 264°
2026-05-06 13:37 53.66986 11.14588 9861 ft 292 kts 264°
2026-05-06 13:37 53.66788 11.11177 9861 ft 292 kts 264°
2026-05-06 13:37 53.66589 11.07759 9862 ft 292 kts 264°
2026-05-06 13:37 53.66389 11.04354 9864 ft 292 kts 264°
2026-05-06 13:38 53.66188 11.00934 9865 ft 293 kts 264°
2026-05-06 13:38 53.65988 10.97553 9867 ft 293 kts 264°
2026-05-06 13:38 53.65785 10.94134 9870 ft 293 kts 264°
2026-05-06 13:38 53.65580 10.90715 9873 ft 293 kts 264°
2026-05-06 13:39 53.65375 10.87294 9872 ft 293 kts 264°
2026-05-06 13:39 53.65169 10.83867 9872 ft 293 kts 264°
2026-05-06 13:39 53.64961 10.80447 9875 ft 294 kts 264°
2026-05-06 13:39 53.64752 10.77011 9870 ft 294 kts 264°
2026-05-06 13:40 53.64474 10.72470 9874 ft 294 kts 264°
2026-05-06 13:40 53.64334 10.70192 9875 ft 294 kts 264°
2026-05-06 13:40 53.64185 10.66776 9879 ft 285 kts 266°
2026-05-06 13:40 53.63719 10.63611 9882 ft 273 kts 246°
2026-05-06 13:41 53.63023 10.60691 9875 ft 272 kts 249°
2026-05-06 13:41 53.62382 10.57690 9877 ft 272 kts 250°
2026-05-06 13:41 53.61766 10.54666 9872 ft 273 kts 251°
2026-05-06 13:41 53.61163 10.51626 9869 ft 273 kts 251°
2026-05-06 13:42 53.60570 10.48589 9871 ft 273 kts 251°
2026-05-06 13:42 53.59980 10.45542 9869 ft 273 kts 251°
2026-05-06 13:42 53.59400 10.42531 9876 ft 274 kts 252°
2026-05-06 13:42 53.58811 10.39469 9867 ft 274 kts 251°
2026-05-06 13:43 53.58223 10.36408 9862 ft 274 kts 251°
2026-05-06 13:43 53.57636 10.33354 9863 ft 274 kts 251°
2026-05-06 13:43 53.57044 10.30279 9863 ft 274 kts 252°
2026-05-06 13:43 53.56461 10.27253 9613 ft 277 kts 252°
2026-05-06 13:44 53.55863 10.24157 9246 ft 279 kts 252°
2026-05-06 13:44 53.55264 10.21059 8974 ft 277 kts 251°
2026-05-06 13:44 53.54671 10.18001 8790 ft 272 kts 251°
2026-05-06 13:44 53.54089 10.14999 8681 ft 269 kts 251°
2026-05-06 13:45 53.53506 10.11998 8549 ft 270 kts 251°
2026-05-06 13:45 53.52337 10.05995 8282 ft 270 kts 251°
2026-05-06 13:45 53.51760 10.03036 8214 ft 261 kts 251°
2026-05-06 13:46 53.51204 10.00193 8143 ft 250 kts 251°
2026-05-06 13:46 53.50678 9.97503 8026 ft 240 kts 251°
2026-05-06 13:46 53.50106 9.94912 7906 ft 235 kts 238°
2026-05-06 13:46 53.49142 9.92725 7799 ft 234 kts 229°
2026-05-06 13:47 53.48112 9.90605 7712 ft 234 kts 229°
2026-05-06 13:47 53.47079 9.88501 7427 ft 233 kts 229°
2026-05-06 13:47 53.46041 9.86397 7139 ft 232 kts 228°
2026-05-06 13:47 53.45023 9.84344 6848 ft 232 kts 228°
2026-05-06 13:48 53.43995 9.82275 6617 ft 230 kts 228°
2026-05-06 13:48 53.42966 9.80211 6321 ft 230 kts 228°
2026-05-06 13:48 53.41938 9.78149 5993 ft 230 kts 228°
2026-05-06 13:48 53.40924 9.76117 5693 ft 228 kts 228°
2026-05-06 13:49 53.39901 9.74072 5388 ft 228 kts 228°
2026-05-06 13:49 53.38893 9.72056 5246 ft 221 kts 228°
2026-05-06 13:49 53.37934 9.70138 5195 ft 209 kts 228°
2026-05-06 13:49 53.37014 9.68305 4986 ft 205 kts 228°
2026-05-06 13:50 53.36292 9.66261 4641 ft 206 kts 258°
2026-05-06 13:50 53.36371 9.63930 4275 ft 202 kts 296°
2026-05-06 13:50 53.37220 9.62196 3914 ft 193 kts 335°
2026-05-06 13:50 53.38460 9.61619 3596 ft 182 kts
2026-05-06 13:51 53.39730 9.61525 3330 ft 181 kts
2026-05-06 13:51 53.40970 9.61576 3080 ft 175 kts 17°
2026-05-06 13:51 53.42102 9.62110 2975 ft 170 kts 23°
2026-05-06 13:51 53.43230 9.62743 2992 ft 171 kts 24°
2026-05-06 13:52 53.44349 9.63456 2979 ft 170 kts 36°
2026-05-06 13:52 53.45260 9.64676 2994 ft 168 kts 42°
2026-05-06 13:52 53.46198 9.65851 2994 ft 168 kts 41°
2026-05-06 13:52 53.47080 9.67128 2987 ft 167 kts 46°
2026-05-06 13:53 53.47898 9.68513 3009 ft 167 kts 49°
2026-05-06 13:53 53.48668 9.69940 2983 ft 167 kts 50°
2026-05-06 13:53 53.49426 9.71412 2994 ft 167 kts 51°
2026-05-06 13:53 53.50177 9.72906 2985 ft 167 kts 51°
2026-05-06 13:54 53.50925 9.74400 2985 ft 167 kts 51°
2026-05-06 13:54 53.51671 9.75898 2998 ft 168 kts 51°
2026-05-06 13:54 53.52431 9.77423 2973 ft 169 kts 51°
2026-05-06 13:54 53.53169 9.78910 2810 ft 166 kts 51°
2026-05-06 13:55 53.53899 9.80380 2588 ft 160 kts 51°
2026-05-06 13:55 53.54598 9.81785 2377 ft 153 kts 50°
2026-05-06 13:55 53.55257 9.83113 2188 ft 140 kts 51°
2026-05-06 13:55 53.55857 9.84325 1997 ft 133 kts 50°
2026-05-06 13:56 53.56448 9.85519 1828 ft 133 kts 50°
2026-05-06 13:56 53.57038 9.86710 1643 ft 132 kts 50°
2026-05-06 13:56 53.57622 9.87887 1506 ft 134 kts 50°
2026-05-06 13:56 53.58226 9.89109 1300 ft 134 kts 51°
2026-05-06 13:57 53.58824 9.90315 1106 ft 133 kts 50°
2026-05-06 13:57 53.59410 9.91497 884 ft 134 kts 49°
2026-05-06 13:57 53.60007 9.92690 721 ft 133 kts 49°
2026-05-06 13:57 53.60610 9.93882 502 ft 135 kts 51°
2026-05-06 13:58 53.61208 9.95123 360 ft 136 kts 49°
2026-05-06 13:58 53.61808 9.96339 147 ft 135 kts 49°
2026-05-06 13:58 53.62391 9.97510 44 ft 120 kts 50°
2026-05-06 13:58 53.62788 9.98320 46 ft 56 kts 50°
2026-05-06 13:59 53.63026 9.98808 48 ft 41 kts 56°
2026-05-06 13:59 53.63090 9.99173 49 ft 22 kts 95°
2026-05-06 13:59 53.63087 9.99236 49 ft 1 kts 96°
2026-05-06 13:59 53.63084 9.99302 49 ft 11 kts 88°
2026-05-06 14:00 53.63088 9.99342 49 ft 0 kts 76°
2026-05-06 14:00 53.63088 9.99343 49 ft 0 kts 76°
2026-05-06 14:00 53.63098 9.99393 49 ft 11 kts 66°
2026-05-06 14:00 53.63166 9.99557 49 ft 17 kts 51°
2026-05-06 14:01 53.63224 9.99696 49 ft 12 kts 74°
2026-05-06 14:01 53.63184 9.99796 51 ft 12 kts 155°
2026-05-06 14:01 53.63101 9.99866 51 ft 15 kts 152°
2026-05-06 14:01 53.63003 9.99952 51 ft 17 kts 152°
2026-05-06 14:02 53.62894 10.00037 51 ft 17 kts 165°
2026-05-06 14:02 53.62796 10.00112 51 ft 7 kts 153°
2026-05-06 14:02 53.62787 10.00175 51 ft 7 kts 62°
2026-05-06 14:02 53.62802 10.00223 48 ft 1 kts 61°
2026-05-06 14:03 53.62808 10.00241 50 ft 0 kts 62°